EW8484 Weather Reports


time (UTC)temp
C
wind
direction
speed
KPH
gust
KPH
rain 1hr
cm
rain 24hr
cm
rain mn
cm
humidity
%
barometer
mb
20260506185027 16 187 1.6 4.8 0.08 0.13 0.13 40 1008.4
20260506184527 16 164 1.6 3.2 0.08 0.13 0.13 39 1008.3
20260506184027 15 153 1.6 4.8 0.08 0.10 0.10 39 1008.5
20260506183527 15 170 1.6 4.8 0.08 0.10 0.10 39 1008.7
20260506183027 16 190 1.6 3.2 0.10 0.10 0.10 39 1008.7
20260506182527 16 189 1.6 3.2 0.10 0.10 0.10 40 1008.6
20260506182027 16 179 1.6 8.0 0.10 0.10 0.10 41 1008.3
20260506181525 16 177 3.2 4.8 0.10 0.10 0.10 45 1008.3
20260506181027 16 173 3.2 8.0 0.08 0.08 0.08 47 1008.4
20260506180527 16 175 1.6 4.8 0.08 0.08 0.08 48 1008.8
20260506180027 16 184 1.6 4.8 0.08 0.08 0.08 49 1008.9
20260506175527 16 175 3.2 8.0 0.05 0.05 0.05 53 1008.7
20260506175047 16 252 1.6 4.8 0.05 0.05 0.05 54 1009.1
20260506174527 16 218 3.2 8.0 0.05 0.05 0.05 57 1009.2
20260506174027 16 221 1.6 6.4 0.03 0.03 0.03 59 1009.3
20260506173527 16 181 1.6 4.8 0.03 0.03 0.03 60 1009.4
20260506173047 17 176 3.2 6.4 0.00 0.00 0.00 60 1009.6
20260506172527 17 171 1.6 6.4 0.00 0.00 0.00 60 1009.8
20260506172027 17 184 3.2 11.3 0.00 0.00 0.00 59 1010.0
20260506171527 18 168 3.2 12.9 0.00 0.00 0.00 58 1009.9
20260506171027 18 161 3.2 6.4 0.00 0.00 0.00 57 1009.8
20260506170527 18 191 3.2 8.0 0.00 0.00 0.00 57 1009.8
20260506170038 18 202 3.2 6.4 0.00 0.00 0.00 55 1009.6
20260506165607 19 193 4.8 11.3 0.00 0.00 0.00 54 1009.6
20260506165047 20 219 3.2 8.0 0.00 0.00 0.00 53 1009.5
20260506164608 20 183 4.8 9.7 0.00 0.00 0.00 52 1009.4
20260506164027 20 165 4.8 12.9 0.00 0.00 0.00 52 1009.4
20260506163528 20 174 6.4 17.7 0.00 0.00 0.00 52 1009.3
20260506163027 20 154 4.8 8.0 0.00 0.00 0.00 52 1009.6
20260506162528 20 186 4.8 11.3 0.00 0.00 0.00 52 1009.6
20260506162027 20 180 4.8 16.1 0.00 0.00 0.00 52 1009.8
20260506161527 20 180 4.8 9.7 0.00 0.00 0.00 52 1009.9
20260506161027 20 160 4.8 11.3 0.00 0.00 0.00 53 1009.9
20260506160547 19 181 3.2 6.4 0.00 0.00 0.00 53 1010.0
20260506160027 19 191 3.2 6.4 0.00 0.00 0.00 53 1010.1
20260506155547 19 142 1.6 3.2 0.00 0.00 0.00 53 1010.2
20260506155026 19 208 3.2 9.7 0.00 0.00 0.00 53 1010.2
20260506154527 19 220 3.2 9.7 0.00 0.00 0.00 53 1010.2
20260506154027 19 203 3.2 6.4 0.00 0.00 0.00 54 1010.3
20260506153527 19 146 3.2 6.4 0.00 0.00 0.00 53 1010.3
20260506153027 19 205 1.6 4.8 0.00 0.00 0.00 53 1010.3
20260506152547 18 192 3.2 6.4 0.00 0.00 0.00 53 1010.3
20260506152027 18 174 3.2 9.7 0.00 0.00 0.00 54 1010.4
20260506151547 18 171 3.2 9.7 0.00 0.00 0.00 53 1010.5
20260506151027 18 145 1.6 4.8 0.00 0.00 0.00 54 1010.5
20260506150527 18 246 3.2 4.8 0.00 0.00 0.00 54 1010.6
20260506150027 18 223 1.6 12.9 0.00 0.00 0.00 54 1010.7
20260506145527 18 225 1.6 6.4 0.00 0.00 0.00 53 1010.6
20260506145027 18 173 3.2 8.0 0.00 0.00 0.00 54 1010.5
20260506144547 18 177 1.6 4.8 0.00 0.00 0.00 54 1010.6
20260506144026 18 159 1.6 4.8 0.00 0.00 0.00 54 1010.8
20260506143526 18 231 1.6 6.4 0.00 0.00 0.00 54 1010.8
20260506143026 17 191 4.8 11.3 0.00 0.00 0.00 54 1010.7
20260506142526 17 183 3.2 6.4 0.00 0.00 0.00 54 1010.8
20260506142027 17 207 3.2 8.0 0.00 0.00 0.00 54 1010.7
20260506141527 17 189 4.8 14.5 0.00 0.00 0.00 54 1010.7
20260506141027 18 253 6.4 16.1 0.00 0.00 0.00 53 1010.9
20260506140527 18 197 1.6 6.4 0.00 0.00 0.00 54 1010.8
20260506140027 17 196 3.2 8.0 0.00 0.00 0.00 53 1010.7
20260506135527 17 185 3.2 8.0 0.00 0.00 0.00 53 1010.6
20260506135026 17 189 4.8 9.7 0.00 0.00 0.00 53 1010.7
20260506134527 17 179 3.2 12.9 0.00 0.00 0.00 53 1010.5
20260506134027 17 209 3.2 8.0 0.00 0.00 0.00 53 1010.7
20260506133527 17 186 1.6 4.8 0.00 0.00 0.00 53 1010.4
20260506133027 17 160 1.6 6.4 0.00 0.00 0.00 52 1010.6
20260506132527 17 178 1.6 8.0 0.00 0.00 0.00 52 1010.6
20260506132027 17 186 3.2 8.0 0.00 0.00 0.00 52 1010.7
20260506131527 17 177 1.6 4.8 0.00 0.00 0.00 53 1010.7
20260506131027 17 183 3.2 6.4 0.00 0.00 0.00 53 1010.7
20260506130527 17 184 3.2 8.0 0.00 0.00 0.00 52 1010.6
20260506130027 16 179 3.2 11.3 0.00 0.00 0.00 52 1010.8
20260506125527 16 176 3.2 8.0 0.00 0.00 0.00 52 1010.8
20260506125027 16 174 1.6 8.0 0.00 0.00 0.00 52 1011.0
20260506124527 16 166 3.2 6.4 0.00 0.00 0.00 52 1010.9
20260506124026 16 197 1.6 9.7 0.00 0.00 0.00 52 1011.1
20260506123526 16 193 3.2 6.4 0.00 0.00 0.00 52 1011.2
20260506123026 16 223 3.2 9.7 0.00 0.00 0.00 52 1011.2
20260506122526 16 122 1.6 11.3 0.00 0.00 0.00 53 1011.3
20260506122047 16 189 3.2 6.4 0.00 0.00 0.00 52 1011.0
20260506121527 16 162 1.6 8.0 0.00 0.00 0.00 52 1010.8
20260506121027 16 191 3.2 9.7 0.00 0.00 0.00 52 1011.1
20260506120526 16 210 3.2 6.4 0.00 0.00 0.00 51 1011.1
20260506120027 16 229 3.2 11.3 0.00 0.00 0.00 51 1010.8
20260506115526 16 196 3.2 8.0 0.00 0.00 0.00 51 1011.0
20260506115026 16 188 3.2 8.0 0.00 0.00 0.00 51 1011.1
20260506114527 16 167 3.2 8.0 0.00 0.00 0.00 50 1011.3
20260506114046 16 259 3.2 8.0 0.00 0.00 0.00 50 1011.2
20260506113546 16 184 3.2 12.9 0.00 0.00 0.00 49 1011.1
20260506113027 16 184 3.2 6.4 0.00 0.00 0.00 48 1011.0
20260506112526 16 172 3.2 8.0 0.00 0.00 0.00 47 1011.0
20260506112026 15 178 3.2 14.5 0.00 0.00 0.00 47 1010.9
20260506111607 15 160 1.6 6.4 0.00 0.00 0.00 46 1011.5
20260506111026 15 199 3.2 11.3 0.00 0.00 0.00 45 1011.5
20260506110526 15 232 1.6 4.8 0.00 0.00 0.00 45 1011.5
20260506110026 15 285 1.6 4.8 0.00 0.00 0.00 45 1011.5
20260506105526 15 210 3.2 11.3 0.00 0.00 0.00 45 1011.4
20260506105026 15 0.0 4.8 0.00 0.00 0.00 44 1011.4
20260506104546 14 183 1.6 4.8 0.00 0.00 0.00 44 1011.4
20260506104046 14 0.0 3.2 0.00 0.00 0.00 44 1011.4
20260506103526 14 181 1.6 4.8 0.00 0.00 0.00 44 1011.3
20260506103047 14 184 1.6 3.2 0.00 0.00 0.00 45 1011.1
20260506102526 14 178 1.6 4.8 0.00 0.00 0.00 45 1011.2
20260506102026 13 187 1.6 6.4 0.00 0.00 0.00 45 1011.0
20260506101526 13 217 1.6 6.4 0.00 0.00 0.00 45 1011.1
20260506101026 13 200 1.6 4.8 0.00 0.00 0.00 47 1011.1
20260506100526 13 0.0 0.0 0.00 0.00 0.00 47 1011.1
20260506100026 13 0.0 0.0 0.00 0.00 0.00 47 1010.9
20260506095526 13 0.0 0.0 0.00 0.00 0.00 47 1011.0
20260506095026 13 0.0 0.0 0.00 0.00 0.00 48 1011.1
20260506094526 13 0.0 1.6 0.00 0.00 0.00 47 1011.2
20260506094026 13 240 1.6 6.4 0.00 0.00 0.00 47 1011.2
20260506093526 13 0.0 4.8 0.00 0.00 0.00 47 1011.1
20260506093046 13 0.0 4.8 0.00 0.00 0.00 47 1011.1
20260506092526 13 282 1.6 9.7 0.00 0.00 0.00 47 1011.0
20260506092026 13 0.0 3.2 0.00 0.00 0.00 47 1011.1
20260506091526 13 0.0 1.6 0.00 0.00 0.00 47 1011.2
20260506091026 13 250 1.6 6.4 0.00 0.00 0.00 47 1011.2
20260506090526 13 274 1.6 6.4 0.00 0.00 0.00 47 1011.2
20260506090026 13 229 1.6 6.4 0.00 0.00 0.00 48 1011.2
20260506085526 13 170 1.6 6.4 0.00 0.00 0.00 48 1011.1
20260506085026 13 236 1.6 8.0 0.00 0.00 0.00 48 1011.2
20260506084526 13 132 1.6 4.8 0.00 0.00 0.00 48 1011.3
20260506084026 13 0.0 1.6 0.00 0.00 0.00 49 1011.3
20260506083526 13 0.0 4.8 0.00 0.00 0.00 50 1011.3
20260506083046 13 0.0 3.2 0.00 0.00 0.00 50 1011.3
20260506082526 13 0.0 3.2 0.00 0.00 0.00 50 1011.4
20260506082026 13 219 1.6 4.8 0.00 0.00 0.00 51 1011.4
20260506081526 13 240 1.6 8.0 0.00 0.00 0.00 51 1011.5
20260506081026 13 128 1.6 3.2 0.00 0.00 0.00 52 1011.6
20260506080526 13 177 1.6 8.0 0.00 0.00 0.00 52 1011.5
20260506073046 13 238 1.6 6.4 0.00 0.00 0.00 55 1011.4
20260506072525 13 0.0 3.2 0.00 0.00 0.00 56 1011.6
20260506072026 13 291 1.6 4.8 0.00 0.00 0.00 58 1011.5
20260506071526 14 0.0 1.6 0.00 0.00 0.00 59 1011.4
20260506071046 14 0.0 3.2 0.00 0.00 0.00 61 1011.4
20260506070526 14 300 1.6 6.4 0.00 0.00 0.00 61 1011.6
20260506062026 15 199 3.2 9.7 0.00 0.00 0.00 61 1011.1
20260506061526 16 180 1.6 14.5 0.00 0.00 0.00 61 1011.1
20260506061025 16 237 1.6 4.8 0.00 0.00 0.00 60 1011.2
20260506060526 16 218 1.6 6.4 0.00 0.00 0.00 60 1011.2
20260506060106 16 186 3.2 8.0 0.00 0.00 0.00 59 1011.2
20260506051026 17 170 3.2 8.0 0.00 0.00 0.00 55 1011.3
20260506050526 17 185 3.2 9.7 0.00 0.00 0.00 55 1011.4
20260506045025 17 192 3.2 9.7 0.00 0.00 0.00 54 1011.2
20260506044526 17 161 1.6 9.7 0.00 0.00 0.00 54 1011.2
20260506044025 17 175 3.2 9.7 0.00 0.00 0.00 54 1011.3
20260506043526 17 198 3.2 9.7 0.00 0.00 0.00 54 1011.2
20260506043026 17 185 1.6 9.7 0.00 0.00 0.00 54 1011.3
20260506042525 17 198 3.2 6.4 0.00 0.00 0.00 54 1011.3
20260506042025 17 199 3.2 8.0 0.00 0.00 0.00 54 1011.2
20260506041526 17 192 1.6 6.4 0.00 0.00 0.00 54 1011.3
20260506041025 17 188 1.6 6.4 0.00 0.00 0.00 54 1011.4
20260506040526 17 138 3.2 12.9 0.00 0.00 0.00 54 1011.5
20260506040025 17 174 3.2 9.7 0.00 0.00 0.00 54 1011.5
20260506035526 17 191 1.6 6.4 0.00 0.00 0.00 54 1011.5
20260506035046 17 231 1.6 3.2 0.00 0.00 0.00 54 1011.5
20260506034546 17 172 3.2 4.8 0.00 0.00 0.00 53 1011.6
20260506034025 17 207 1.6 4.8 0.00 0.00 0.00 53 1011.7
20260506033526 17 213 1.6 8.0 0.00 0.00 0.00 52 1011.6
20260506033025 17 192 3.2 6.4 0.00 0.00 0.00 52 1011.7
20260506032526 17 189 1.6 4.8 0.00 0.00 0.00 52 1011.6
20260506032026 17 173 3.2 9.7 0.00 0.00 0.00 52 1011.8
20260506031525 17 168 3.2 9.7 0.00 0.00 0.00 52 1011.7
20260506031046 17 233 1.6 6.4 0.00 0.00 0.00 52 1011.8
20260506030525 17 185 1.6 6.4 0.00 0.00 0.00 52 1011.7
20260506030025 17 173 1.6 8.0 0.00 0.00 0.00 52 1011.6
20260506025525 17 176 3.2 8.0 0.00 0.00 0.00 52 1011.5
20260506025026 17 183 1.6 9.7 0.00 0.00 0.00 51 1011.5
20260506024526 17 211 1.6 6.4 0.00 0.00 0.00 51 1011.6
20260506024025 17 182 3.2 8.0 0.00 0.00 0.00 52 1011.5
20260506023525 17 200 1.6 4.8 0.00 0.00 0.00 52 1011.4
20260506023025 17 178 3.2 8.0 0.00 0.00 0.00 51 1011.4
20260506022525 17 169 1.6 6.4 0.00 0.00 0.00 51 1011.4
20260506022025 17 181 3.2 8.0 0.00 0.00 0.00 51 1011.3
20260506021526 17 177 1.6 6.4 0.00 0.00 0.00 51 1011.4
20260506021025 17 188 1.6 6.4 0.00 0.00 0.00 51 1011.4
20260506020546 17 193 3.2 8.0 0.00 0.00 0.00 51 1011.4
20260506020028 17 280 1.6 4.8 0.00 0.00 0.00 51 1011.4
20260506015525 17 100 1.6 3.2 0.00 0.00 0.00 51 1011.4
20260506015026 17 95 1.6 4.8 0.00 0.00 0.00 50 1011.3
20260506014546 17 162 3.2 11.3 0.00 0.00 0.00 50 1011.4
20260506014025 17 177 1.6 6.4 0.00 0.00 0.00 49 1011.3
20260506013526 18 163 1.6 6.4 0.00 0.00 0.00 49 1011.2
20260506013025 18 182 3.2 14.5 0.00 0.00 0.00 49 1011.2
20260506012527 18 166 1.6 8.0 0.00 0.00 0.00 49 1011.0
20260506012025 18 171 1.6 6.4 0.00 0.00 0.00 49 1011.1
20260506011525 18 166 3.2 6.4 0.00 0.00 0.00 48 1010.9
20260506011025 18 226 1.6 4.8 0.00 0.00 0.00 48 1010.7
20260506010526 18 198 3.2 11.3 0.00 0.00 0.00 48 1010.7
20260506010105 18 165 3.2 8.0 0.00 0.00 0.00 48 1010.7
20260506005526 19 137 3.2 9.7 0.00 0.00 0.00 48 1010.6
20260506005026 19 181 1.6 9.7 0.00 0.00 0.00 47 1010.6
20260506004525 19 191 3.2 6.4 0.00 0.00 0.00 47 1010.6
20260506004026 19 201 3.2 4.8 0.00 0.00 0.00 47 1010.5
20260506003527 19 174 4.8 11.3 0.00 0.00 0.00 46 1010.4
20260506003025 20 159 3.2 6.4 0.00 0.00 0.00 46 1010.3
20260506002528 20 219 4.8 12.9 0.00 0.00 0.00 45 1010.2
20260506002027 20 207 3.2 12.9 0.00 0.00 0.00 46 1010.2
20260506001548 20 211 1.6 4.8 0.00 0.00 0.00 45 1010.0
20260506001027 20 185 3.2 8.0 0.00 0.00 0.00 46 1010.0
20260506000527 20 212 4.8 12.9 0.00 0.00 0.00 44 1009.9
20260506000048 20 193 3.2 11.3 0.00 0.00 0.00 44 1009.8
20260505235547 20 187 4.8 17.7 0.00 0.00 0.00 44 1009.6
20260505235108 20 203 3.2 11.3 0.00 0.00 0.00 43 1009.6
20260505234527 21 185 3.2 9.7 0.00 0.00 0.00 44 1009.5
20260505234027 21 222 3.2 9.7 0.00 0.00 0.00 42 1009.4
20260505233527 21 193 3.2 14.5 0.00 0.00 0.00 42 1009.3
20260505233027 21 178 6.4 22.5 0.00 0.00 0.00 42 1009.2
20260505232527 21 184 1.6 6.4 0.00 0.00 0.00 42 1009.1
20260505232027 21 221 3.2 12.9 0.00 0.00 0.00 42 1009.1
20260505231527 21 221 3.2 6.4 0.00 0.00 0.00 41 1009.0
20260505231027 21 240 3.2 9.7 0.00 0.00 0.00 40 1009.0
20260505230527 22 183 4.8 16.1 0.00 0.00 0.00 39 1008.9
20260505230047 22 214 4.8 14.5 0.00 0.00 0.00 40 1008.7
20260505225527 22 209 3.2 8.0 0.00 0.00 0.00 39 1008.9
20260505225047 22 222 4.8 17.7 0.00 0.00 0.00 39 1008.8
20260505224527 22 207 3.2 8.0 0.00 0.00 0.00 39 1008.6
20260505224027 22 208 3.2 8.0 0.00 0.00 0.00 38 1008.6
20260505223628 22 204 4.8 9.7 0.00 0.00 0.00 38 1008.6
20260505223027 22 186 4.8 14.5 0.00 0.00 0.00 37 1008.5
20260505222527 23 186 6.4 14.5 0.00 0.00 0.00 37 1008.4
20260505222027 23 181 4.8 8.0 0.00 0.00 0.00 37 1008.5
20260505221527 23 189 3.2 11.3 0.00 0.00 0.00 37 1008.4
20260505221027 23 204 4.8 11.3 0.00 0.00 0.00 37 1008.2
20260505220527 23 200 4.8 11.3 0.00 0.00 0.00 37 1008.3
20260505220027 23 202 3.2 16.1 0.00 0.00 0.00 36 1008.2
20260505215527 23 182 4.8 14.5 0.00 0.00 0.00 36 1008.2
20260505215027 24 184 3.2 8.0 0.00 0.00 0.00 37 1008.1
20260505214527 24 193 4.8 11.3 0.00 0.00 0.00 36 1008.1
20260505214027 24 188 4.8 14.5 0.00 0.00 0.00 35 1008.1
20260505213527 24 184 6.4 16.1 0.00 0.00 0.00 35 1008.2
20260505213027 24 189 4.8 12.9 0.00 0.00 0.00 34 1008.3
20260505212527 24 209 4.8 16.1 0.00 0.00 0.00 35 1008.4
20260505212027 25 180 6.4 16.1 0.00 0.00 0.00 34 1008.3
20260505211527 25 201 6.4 19.3 0.00 0.00 0.00 34 1008.2
20260505211017 25 203 4.8 11.3 0.00 0.00 0.00 34 1008.1
20260505210527 25 179 4.8 12.9 0.00 0.00 0.00 34 1008.2
20260505210027 25 213 4.8 12.9 0.00 0.00 0.00 34 1008.0
20260505205527 25 193 4.8 16.1 0.00 0.00 0.00 32 1008.0
20260505205027 25 191 4.8 11.3 0.00 0.00 0.00 32 1007.9
20260505204527 25 200 4.8 9.7 0.00 0.00 0.00 33 1007.9
20260505204026 25 185 6.4 14.5 0.00 0.00 0.00 32 1007.9
20260505203527 26 213 4.8 11.3 0.00 0.00 0.00 30 1007.9
20260505203027 26 190 6.4 12.9 0.00 0.00 0.00 31 1007.8
20260505202527 26 194 6.4 12.9 0.00 0.00 0.00 31 1007.9
20260505202027 26 185 6.4 17.7 0.00 0.00 0.00 31 1007.9
20260505201527 26 179 4.8 14.5 0.00 0.00 0.00 30 1008.0
20260505201027 26 187 4.8 11.3 0.00 0.00 0.00 30 1007.9
20260505200527 26 200 6.4 24.1 0.00 0.00 0.00 29 1008.1
20260505200027 27 185 8.0 24.1 0.00 0.00 0.00 29 1008.0
20260505195526 27 213 4.8 11.3 0.00 0.00 0.00 29 1007.9
20260505195027 27 193 6.4 19.3 0.00 0.00 0.00 28 1007.9
20260505194527 27 208 8.0 20.9 0.00 0.00 0.00 28 1007.9
20260505194027 27 196 6.4 14.5 0.00 0.00 0.00 28 1008.0
20260505193527 27 183 4.8 11.3 0.00 0.00 0.00 34 1007.9
20260505193047 27 216 6.4 14.5 0.00 0.00 0.00 29 1007.9
20260505192526 27 197 4.8 12.9 0.00 0.00 0.00 30 1007.9
20260505192027 27 179 4.8 11.3 0.00 0.00 0.00 29 1008.1
20260505191527 27 187 6.4 11.3 0.00 0.00 0.00 27 1008.4
20260505191027 27 185 6.4 12.9 0.00 0.00 0.00 28 1008.3
20260505190527 27 217 4.8 14.5 0.00 0.00 0.00 29 1008.3
20260505190047 27 199 8.0 20.9 0.00 0.00 0.00 28 1008.3
20260505185527 27 195 6.4 22.5 0.00 0.00 0.00 29 1008.4